• In Lithuania
  • List of Countries
  • For 7 days
  • Water Temperature
  • Satellite Maps
  • Weather Map
  • Weather Widgets
  • user-avatar
    Login

    Hourly Weather Fedulov

    Today, 22 October, Monday

    Time Temperature Precipitation Wind Pressure Humidity
    00:00 +17°C° 0.4 mm 3 mps 760 mmHg 85%
    01:00 +17°C° 0.5 mm 3 mps 760 mmHg 85%
    02:00 +17°C° 0.5 mm 3 mps 760 mmHg 85%
    03:00 +17°C° 0.5 mm 3 mps 761 mmHg 85%
    04:00 +16°C° 0.4 mm 3 mps 760 mmHg 83%
    05:00 +16°C° 0.4 mm 3 mps 760 mmHg 82%
    06:00 +16°C° 0.4 mm 3 mps 760 mmHg 81%
    07:00 +17°C° 0 mm 4 mps 760 mmHg 77%
    08:00 +17°C° 0 mm 4 mps 761 mmHg 72%
    09:00 +17°C° 0 mm 5 mps 761 mmHg 68%
    10:00 +19°C° 0 mm 5 mps 761 mmHg 65%
    11:00 +20°C° 0 mm 5 mps 761 mmHg 62%
    12:00 +21°C° 0 mm 5 mps 761 mmHg 59%
    13:00 +20°C° 0.6 mm 5 mps 761 mmHg 65%
    14:00 +19°C° 0.6 mm 4 mps 761 mmHg 70%
    15:00 +19°C° 0.6 mm 4 mps 760 mmHg 75%
    16:00 +18°C° 0.7 mm 4 mps 760 mmHg 78%
    17:00 +18°C° 0.7 mm 3 mps 760 mmHg 82%
    18:00 +17°C° 0.7 mm 3 mps 760 mmHg 85%
    19:00 +17°C° 0.3 mm 3 mps 760 mmHg 86%
    20:00 +17°C° 0.3 mm 3 mps 760 mmHg 87%
    21:00 +16°C° 0.3 mm 3 mps 760 mmHg 88%
    22:00 +16°C° 0.1 mm 3 mps 760 mmHg 89%
    23:00 +16°C° 0.1 mm 3 mps 760 mmHg 91%

    Tomorrow, 23 October, Tuesday

    Time Temperature Precipitation Wind Pressure Humidity
    00:00 +15°C° 0.1 mm 4 mps 760 mmHg 92%
    01:00 +14°C° 0 mm 4 mps 760 mmHg 92%
    02:00 +14°C° 0 mm 4 mps 760 mmHg 93%
    03:00 +13°C° 0 mm 4 mps 760 mmHg 93%
    04:00 +13°C° 0 mm 4 mps 760 mmHg 92%
    05:00 +12°C° 0 mm 4 mps 760 mmHg 91%
    06:00 +12°C° 0 mm 3 mps 760 mmHg 90%
    07:00 +12°C° 0 mm 4 mps 760 mmHg 87%
    08:00 +13°C° 0 mm 4 mps 760 mmHg 84%
    09:00 +13°C° 0 mm 4 mps 760 mmHg 81%
    10:00 +14°C° 0 mm 4 mps 760 mmHg 74%
    11:00 +15°C° 0 mm 5 mps 760 mmHg 68%
    12:00 +16°C° 0 mm 5 mps 760 mmHg 61%
    13:00 +16°C° 0 mm 5 mps 759 mmHg 60%
    14:00 +16°C° 0 mm 5 mps 759 mmHg 58%
    15:00 +17°C° 0 mm 5 mps 759 mmHg 57%
    16:00 +17°C° 0 mm 4 mps 758 mmHg 60%
    17:00 +16°C° 0 mm 3 mps 758 mmHg 64%
    18:00 +14°C° 0 mm 3 mps 758 mmHg 67%
    19:00 +13°C° 0 mm 3 mps 758 mmHg 70%
    20:00 +12°C° 0 mm 3 mps 758 mmHg 72%
    21:00 +12°C° 0 mm 3 mps 758 mmHg 75%
    22:00 +12°C° 0 mm 3 mps 757 mmHg 77%
    23:00 +11°C° 0 mm 3 mps 757 mmHg 79%

    Day after tomorrow, 24 October, Wednesday

    Time Temperature Precipitation Wind Pressure Humidity
    00:00 +11°C° 0 mm 3 mps 757 mmHg 80%
    01:00 +11°C° 0 mm 3 mps 756 mmHg 82%
    02:00 +10°C° 0 mm 3 mps 756 mmHg 83%
    03:00 +10°C° 0 mm 3 mps 756 mmHg 85%
    04:00 +10°C° 0 mm 3 mps 755 mmHg 86%
    05:00 +10°C° 0 mm 3 mps 755 mmHg 86%
    06:00 +9°C° 0 mm 3 mps 754 mmHg 87%
    07:00 +11°C° 0 mm 4 mps 754 mmHg 81%
    08:00 +12°C° 0 mm 4 mps 753 mmHg 75%
    09:00 +13°C° 0 mm 5 mps 753 mmHg 68%
    10:00 +14°C° 0 mm 6 mps 752 mmHg 66%
    11:00 +16°C° 0 mm 7 mps 751 mmHg 63%
    12:00 +17°C° 0 mm 8 mps 750 mmHg 61%
    13:00 +18°C° 0.1 mm 8 mps 749 mmHg 59%
    14:00 +18°C° 0.1 mm 8 mps 748 mmHg 57%
    15:00 +18°C° 0.1 mm 8 mps 748 mmHg 55%
    16:00 +17°C° 0.3 mm 7 mps 747 mmHg 60%
    17:00 +16°C° 0.3 mm 6 mps 747 mmHg 64%
    18:00 +15°C° 0.3 mm 5 mps 746 mmHg 69%
    19:00 +15°C° 0.1 mm 5 mps 746 mmHg 72%
    20:00 +15°C° 0.1 mm 5 mps 746 mmHg 74%
    21:00 +15°C° 0.1 mm 5 mps 745 mmHg 76%
    22:00 +14°C° 0.2 mm 5 mps 745 mmHg 77%
    23:00 +14°C° 0.2 mm 5 mps 744 mmHg 78%

    25 October, Thursday

    Time Temperature Precipitation Wind Pressure Humidity
    00:00 +14°C° 0.2 mm 5 mps 744 mmHg 78%
    01:00 +14°C° 0 mm 5 mps 743 mmHg 79%
    02:00 +13°C° 0 mm 5 mps 743 mmHg 79%
    03:00 +13°C° 0 mm 5 mps 743 mmHg 79%
    04:00 +13°C° 0.1 mm 6 mps 743 mmHg 79%
    05:00 +12°C° 0.1 mm 7 mps 743 mmHg 79%
    06:00 +12°C° 0.1 mm 8 mps 742 mmHg 79%
    07:00 +11°C° 0.1 mm 7 mps 743 mmHg 74%
    08:00 +11°C° 0.1 mm 7 mps 744 mmHg 69%
    09:00 +10°C° 0.1 mm 7 mps 744 mmHg 64%
    10:00 +10°C° 0 mm 7 mps 745 mmHg 58%
    11:00 +11°C° 0 mm 8 mps 746 mmHg 52%
    12:00 +11°C° 0 mm 8 mps 747 mmHg 46%
    13:00 +11°C° 0 mm 8 mps 747 mmHg 46%
    14:00 +11°C° 0 mm 8 mps 747 mmHg 46%
    15:00 +11°C° 0 mm 8 mps 748 mmHg 46%
    16:00 +11°C° 0 mm 7 mps 748 mmHg 50%
    17:00 +10°C° 0 mm 6 mps 748 mmHg 53%
    18:00 +9°C° 0 mm 6 mps 749 mmHg 57%
    19:00 +9°C° 0 mm 6 mps 749 mmHg 59%
    20:00 +9°C° 0 mm 6 mps 750 mmHg 60%
    21:00 +9°C° 0 mm 5 mps 750 mmHg 62%
    22:00 +8°C° 0 mm 5 mps 750 mmHg 63%
    23:00 +8°C° 0 mm 5 mps 751 mmHg 65%

    26 October, Friday

    Time Temperature Precipitation Wind Pressure Humidity
    00:00 +8°C° 0 mm 5 mps 751 mmHg 66%
    01:00 +7°C° 0 mm 5 mps 751 mmHg 68%
    02:00 +7°C° 0 mm 5 mps 752 mmHg 70%
    03:00 +6°C° 0 mm 4 mps 752 mmHg 71%
    04:00 +6°C° 0 mm 4 mps 753 mmHg 70%
    05:00 +6°C° 0 mm 4 mps 753 mmHg 69%
    06:00 +5°C° 0 mm 4 mps 754 mmHg 68%
    07:00 +6°C° 0 mm 5 mps 755 mmHg 63%
    08:00 +5°C° 0 mm 6 mps 755 mmHg 59%
    09:00 +6°C° 0 mm 7 mps 756 mmHg 54%
    10:00 +8°C° 0 mm 7 mps 756 mmHg 51%
    11:00 +9°C° 0 mm 7 mps 756 mmHg 47%
    12:00 +10°C° 0 mm 7 mps 757 mmHg 44%
    13:00 +10°C° 0 mm 7 mps 757 mmHg 44%
    14:00 +10°C° 0 mm 7 mps 757 mmHg 44%
    15:00 +10°C° 0 mm 7 mps 757 mmHg 43%
    16:00 +9°C° 0.1 mm 6 mps 758 mmHg 48%
    17:00 +9°C° 0.1 mm 6 mps 758 mmHg 53%
    18:00 +8°C° 0.1 mm 5 mps 758 mmHg 57%
    19:00 +8°C° 0.4 mm 5 mps 759 mmHg 63%
    20:00 +8°C° 0.4 mm 5 mps 759 mmHg 68%
    21:00 +8°C° 0.4 mm 5 mps 759 mmHg 73%
    22:00 +7°C° 0 mm 4 mps 760 mmHg 75%
    23:00 +8°C° 0 mm 3 mps 760 mmHg 76%

    27 October, Saturday

    Time Temperature Precipitation Wind Pressure Humidity
    00:00 +8°C° 0 mm 3 mps 760 mmHg 77%
    01:00 +7°C° 0 mm 3 mps 761 mmHg 79%
    02:00 +7°C° 0 mm 3 mps 762 mmHg 82%
    03:00 +7°C° 0 mm 2 mps 762 mmHg 84%
    04:00 +7°C° 0 mm 2 mps 763 mmHg 86%
    05:00 +7°C° 0 mm 2 mps 763 mmHg 87%
    06:00 +6°C° 0 mm 2 mps 764 mmHg 88%
    07:00 +8°C° 0 mm 2 mps 764 mmHg 84%
    08:00 +9°C° 0 mm 3 mps 765 mmHg 79%
    09:00 +10°C° 0 mm 3 mps 765 mmHg 74%
    10:00 +11°C° 0 mm 4 mps 765 mmHg 68%
    11:00 +13°C° 0 mm 4 mps 765 mmHg 62%
    12:00 +14°C° 0 mm 5 mps 765 mmHg 56%
    13:00 +15°C° 0 mm 5 mps 765 mmHg 54%
    14:00 +15°C° 0 mm 5 mps 765 mmHg 53%
    15:00 +16°C° 0 mm 5 mps 765 mmHg 51%
    16:00 +15°C° 0 mm 4 mps 765 mmHg 56%
    17:00 +13°C° 0 mm 3 mps 765 mmHg 61%
    18:00 +12°C° 0 mm 3 mps 765 mmHg 65%
    19:00 +12°C° 0 mm 3 mps 765 mmHg 68%
    20:00 +12°C° 0 mm 3 mps 765 mmHg 70%
    21:00 +12°C° 0 mm 3 mps 765 mmHg 73%
    22:00 +11°C° 0 mm 3 mps 766 mmHg 76%
    23:00 +11°C° 0 mm 3 mps 766 mmHg 80%

    28 October, Sunday

    Time Temperature Precipitation Wind Pressure Humidity
    00:00 +11°C° 0 mm 3 mps 766 mmHg 83%
    01:00 +11°C° 0 mm 4 mps 766 mmHg 85%
    02:00 +11°C° 0 mm 4 mps 766 mmHg 87%
    03:00 +11°C° 0 mm 4 mps 766 mmHg 88%
    04:00 +11°C° 0 mm 4 mps 766 mmHg 88%
    05:00 +11°C° 0 mm 4 mps 766 mmHg 88%
    06:00 +10°C° 0 mm 5 mps 766 mmHg 88%
    07:00 +12°C° 0 mm 5 mps 767 mmHg 80%
    08:00 +13°C° 0 mm 5 mps 767 mmHg 72%
    09:00 +14°C° 0 mm 6 mps 767 mmHg 64%
    10:00 +15°C° 0 mm 5 mps 767 mmHg 59%
    11:00 +17°C° 0 mm 5 mps 767 mmHg 54%
    12:00 +19°C° 0 mm 5 mps 767 mmHg 49%
    13:00 +20°C° 0 mm 5 mps 767 mmHg 47%
    14:00 +20°C° 0 mm 5 mps 766 mmHg 44%
    15:00 +20°C° 0 mm 4 mps 766 mmHg 42%
    16:00 +19°C° 0 mm 4 mps 766 mmHg 45%
    17:00 +18°C° 0 mm 3 mps 766 mmHg 49%
    18:00 +16°C° 0 mm 3 mps 766 mmHg 52%
    19:00 +16°C° 0 mm 3 mps 766 mmHg 52%
    20:00 +14°C° 0 mm 3 mps 766 mmHg 52%
    21:00 +14°C° 0 mm 3 mps 766 mmHg 53%
    22:00 +13°C° 0 mm 3 mps 766 mmHg 53%
    23:00 +13°C° 0 mm 3 mps 766 mmHg 54%
    Show more